This demonstration page uses our WeatherBlox Daily Observations layout. Learn more.

Left ArrowRight Arrow

Hourly Observations for February 7, 2020

Temp ( °F °C ) Dew Point ( °F °C ) Humidity (%) Winds ( mph kmh ) Pressure ( in mb ) Visibility ( mi km ) Precip ( " mm )
12:56 am 00:56 Cloudy with Light Wintry Mix 31 -0.6 28 -2.2 89 89 N 14 22 29.70 1006 9 14 0.00 0.00
1:56 am 01:56 Cloudy 31 -0.6 28 -2.2 89 89 NNW 7 11 29.71 1006 10 16 0.00 0.00
2:42 am 02:42 Partly Cloudy 28 -2 25 -4 86 86 NNW 8 13 29.79 1009 10 16 0.00 0.00
2:56 am 02:56 Clear 28 -2.2 25 -3.9 88 88 NW 8 13 29.72 1007 10 16 0.00 0.00
3:56 am 03:56 Cloudy 29 -1.7 25 -3.9 85 85 NW 8 13 29.74 1007 10 16 0.00 0.00
4:35 am 04:35 Cloudy 30 -1 27 -3 86 86 NNW 8 13 29.81 1009 10 16 0.00 0.00
4:56 am 04:56 Cloudy with Light Snow 30 -1.1 26 -3.3 85 85 NNW 9 15 29.76 1008 9 14 0.00 0.00
5:56 am 05:56 Cloudy 29 -1.7 24 -4.4 82 82 N 13 20 29.79 1009 10 16 0.00 0.00
6:28 am 06:28 Cloudy 28 -2 23 -5 80 80 N 10 17 29.86 1011 10 16 0.00 0.00
6:56 am 06:56 Cloudy 27 -2.8 23 -5 85 85 N 13 20 29.80 1009 10 16 0.00 0.00
7:56 am 07:56 Cloudy 27 -2.8 22 -5.6 81 81 NNW 12 19 29.84 1011 10 16 0.00 0.00
8:56 am 08:56 Cloudy 27 -2.8 22 -5.6 81 81 NNW 14 22 29.87 1012 10 16 0.00 0.00
9:08 am 09:08 Cloudy 27 -3 21 -6 80 80 NNW 13 20 29.94 1014 10 16 0.00 0.00
9:56 am 09:56 Cloudy 28 -2.2 22 -5.6 78 78 NNW 13 20 29.89 1012 10 16 0.00 0.00
10:56 am 10:56 Cloudy 31 -0.6 21 -6.1 67 67 NNW 13 20 29.90 1013 10 16 0.00 0.00
11:04 am 11:04 Cloudy 30 -1 21 -6 69 69 N 13 20 29.95 1014 10 16 0.00 0.00
11:56 am 11:56 Cloudy 32 0 21 -6.1 64 64 N 10 17 29.91 1013 10 16 0.00 0.00
12:44 pm 12:44 Mostly Cloudy 32 0 19 -7 60 60 NNW 12 19 29.95 1014 10 16 0.00 0.00
12:56 pm 12:56 Cloudy 32 0 21 -6.1 64 64 N 13 20 29.91 1013 10 16 0.00 0.00
1:13 pm 13:13 Cloudy 32 0 21 -6 64 64 N 10 17 29.95 1014 10 16 0.00 0.00
1:20 pm 13:20 Cloudy 34 1 19 -7 56 56 N 15 24 29.94 1014 10 16 0.00 0.00
1:56 pm 13:56 Cloudy 31 -0.6 21 -6.1 67 67 N 13 20 29.92 1013 10 16 0.00 0.00
2:56 pm 14:56 Cloudy 32 0 21 -6.1 64 64 N 10 17 29.94 1014 10 16 0.00 0.00
3:44 pm 15:44 Cloudy 30 -1 19 -7 64 64 N 13 20 30.01 1016 10 16 0.00 0.00
3:56 pm 15:56 Cloudy 32 0 20 -6.7 61 61 N 9 15 29.96 1015 10 16 0.00 0.00
4:56 pm 16:56 Mostly Cloudy 30 -1.1 19 -7.2 64 64 N 10 17 29.99 1016 10 16 0.00 0.00
5:56 pm 17:56 Cloudy 28 -2.2 19 -7.2 69 69 NNE 9 15 30.01 1016 10 16 0.00 0.00
6:56 pm 18:56 Cloudy 26 -3.3 19 -7.2 75 75 NNE 6 9 30.05 1018 10 16 0.00 0.00
7:56 pm 19:56 Clear 25 -3.9 19 -7.2 78 78 NE 3 6 30.08 1019 10 16 0.00 0.00
8:56 pm 20:56 Clear 25 -3.9 18 -7.8 75 75 NNE 5 7 30.10 1019 10 16 0.00 0.00
9:56 pm 21:56 Clear 22 -5.6 17 -8.3 82 82 Calm 30.11 1020 10 16 0.00 0.00
10:56 pm 22:56 Clear 21 -6.1 17 -8.3 85 85 E 3 6 30.12 1020 10 16 0.00 0.00
11:56 pm 23:56 Mostly Cloudy 20 -6.7 17 -8.3 89 89 S 6 9 30.13 1020 10 16 0.00 0.00

Powered by AerisWeather